Laredo, TX

2:40 PM CST on November 19, 2017 (GMT -0600)
Laredo International

Weather History for KLRD - February, 2012

Change the Weather History Date:

Wednesday, February 29, 2012

  Actual Average Record
Temperature  
Mean Temperature 73 °F 64 °F  
Max Temperature 81 °F 75 °F 99 °F (1940)
Min Temperature 65 °F 53 °F 33 °F (1924)
Degree Days  
Heating Degree Days 0 4  
Month to date heating degree days 156 168  
Since 1 July heating degree days 639 848  
Cooling Degree Days 8 3  
Month to date cooling degree days 74 60  
Year to date cooling degree days 117 88  
Growing Degree Days 22 (Base 50)    
Moisture  
Dew Point 64 °F    
Average Humidity 76    
Maximum Humidity 93    
Minimum Humidity 56    
Precipitation  
Precipitation 0.00 in 0.05 in 0.09 in (1960)
Month to date precipitation 0.33 0.94  
Year to date precipitation 0.35 1.84  
Sea Level Pressure  
Sea Level Pressure 29.93 in    
Wind  
Wind Speed 8 mph (ENE)    
Max Wind Speed 17 mph    
Max Gust Speed 21 mph    
Visibility 9 miles    
Events      
T = Trace of Precipitation, MM = Missing Value Source: NWS Daily Summary

Daily Weather History Graph

Daily Weather History Graph

Search for Another Location

Airport or City:

Trip Planner

Search our weather history database for the weather conditions in past years. The results will help you decide how hot, cold, wet, or windy it might be!

Date:

Astronomy

Feb. 29, 2012 Rise Set
Actual Time 7:02 AM CST 6:38 PM CST
Civil Twilight 6:39 AM CST 7:01 PM CST
Nautical Twilight 6:12 AM CST 7:28 PM CST
Astronomical Twilight 5:44 AM CST 7:55 PM CST
Moon 11:35 AM CST (2/29) 12:47 AM CST (2/29)
Length of Visible Light 12h 22m
Length of Day
11h 35m
Waxing Crescent, 47% of the Moon is Illuminated
Feb 29
Waxing Crescent
Feb 29
First Quarter
Mar 8
Full
Mar 14
Last Quarter
Mar 22
New

Hourly Weather History & Observations

Time (CST) Temp. Heat Index Dew Point Humidity Pressure Visibility Wind Dir Wind Speed Gust Speed Precip Events Conditions
12:56 AM 70.9 °F - 64.9 °F 81% 29.89 in 10.0 mi South 11.5 mph - N/A   Clear
1:56 AM 70.0 °F - 64.9 °F 84% 29.88 in 10.0 mi SSE 11.5 mph - N/A   Clear
2:56 AM 68.9 °F - 65.8 °F 90% 29.85 in 9.0 mi SSE 13.8 mph - N/A   Clear
3:56 AM 68.9 °F - 65.8 °F 90% 29.84 in 9.0 mi South 11.5 mph - N/A   Clear
4:56 AM 68.9 °F - 64.9 °F 87% 29.84 in 9.0 mi SSE 11.5 mph - N/A   Clear
5:56 AM 68.0 °F - 63.9 °F 87% 29.88 in 8.0 mi Variable 4.6 mph - N/A   Clear
6:56 AM 64.9 °F - 63.0 °F 93% 29.91 in 6.0 mi ESE 3.5 mph - N/A   Clear
7:56 AM 66.9 °F - 64.9 °F 93% 29.94 in 4.0 mi NE 4.6 mph - N/A   Clear
8:56 AM 70.9 °F - 65.8 °F 84% 29.97 in 8.0 mi Variable 3.5 mph - N/A   Partly Cloudy
9:16 AM 73.4 °F - 66.2 °F 78% 30.00 in 10.0 mi Calm Calm - N/A   Mostly Cloudy
9:56 AM 73.9 °F - 65.8 °F 76% 29.99 in 10.0 mi Variable 4.6 mph - N/A   Mostly Cloudy
10:56 AM 72.0 °F - 64.9 °F 78% 30.00 in 9.0 mi NNW 10.4 mph - N/A   Overcast
11:09 AM 73.4 °F - 64.4 °F 73% 30.03 in 9.0 mi North 9.2 mph - N/A   Overcast
11:56 AM 72.9 °F - 65.8 °F 79% 29.99 in 9.0 mi North 10.4 mph - N/A   Overcast
12:56 PM 75.9 °F - 64.9 °F 69% 29.98 in 10.0 mi North 11.5 mph - N/A   Overcast
1:56 PM 77.0 °F - 64.9 °F 66% 29.94 in 10.0 mi NNE 13.8 mph - N/A   Overcast
2:16 PM 78.8 °F - 64.4 °F 61% 29.97 in 10.0 mi NNE 15.0 mph - N/A   Overcast
2:56 PM 79.0 °F - 64.9 °F 62% 29.93 in 10.0 mi North 13.8 mph - N/A   Overcast
3:56 PM 79.9 °F - 63.9 °F 58% 29.92 in 10.0 mi NE 8.1 mph - N/A   Mostly Cloudy
4:56 PM 81.0 °F 82.5 °F 63.9 °F 56% 29.91 in 10.0 mi ENE 11.5 mph - N/A   Clear
5:56 PM 79.9 °F - 63.9 °F 58% 29.91 in 10.0 mi ENE 10.4 mph - N/A   Clear
6:56 PM 75.9 °F - 63.9 °F 66% 29.92 in 10.0 mi East 4.6 mph - N/A   Clear
7:56 PM 73.9 °F - 63.0 °F 68% 29.93 in 10.0 mi NE 3.5 mph - N/A   Clear
8:56 PM 70.9 °F - 63.0 °F 76% 29.94 in 10.0 mi Calm Calm - N/A   Clear
9:56 PM 68.9 °F - 63.0 °F 81% 29.94 in 7.0 mi Calm Calm - N/A   Clear
10:56 PM 68.0 °F - 63.0 °F 84% 29.94 in 8.0 mi Calm Calm - N/A   Clear
11:56 PM 68.0 °F - 63.0 °F 84% 29.93 in 8.0 mi Calm Calm - N/A   Clear